Location: Unspecified
(0.0000°N, 0.0000°E)
Time: 11:52:19
(UTC+01:00)

Cosmos 2369 Rocket - Visible Passes

Search period start: 23 November 2014 00:00
Search period end: 03 December 2014 00:00
Orbit: 828 x 854 km, 71.0° (Epoch: 20 November)

Date Brightness Start Highest point End Pass type
(mag) Time Alt. Az. Time Alt. Az. Time Alt. Az.
23 Nov 2.3 05:01:58 10° S 05:07:31 75° ESE 05:13:04 10° NNE visible
24 Nov 2.4 04:46:43 10° S 04:52:16 69° ESE 04:57:48 10° NNE visible
25 Nov 2.5 04:31:30 10° S 04:37:00 64° ESE 04:42:30 10° NNE visible
26 Nov 4.0 04:16:16 10° S 04:18:19 23° S 04:18:19 23° S visible
